FW5955 Weather Reports


time (UTC)temp
F
wind
direction
speed
knots
gust
knots
rain 1hr
in
rain 24hr
in
rain mn
in
humidity
%
barometer
mb
20260506073104 46 257 9.6 17.4 0.00 0.00 0.00 94 1016.7
20260506071609 46 246 7.8 15.6 0.00 0.00 0.00 94 1016.8
20260506061548 46 244 8.7 16.5 0.00 0.00 0.00 94 1016.9
20260506044540 46 222 7.0 16.5 0.00 0.00 0.00 94 1016.9
20260506043039 46 245 7.0 13.0 0.00 0.00 0.00 94 1016.8
20260506041551 46 248 7.8 13.0 0.00 0.00 0.00 94 1016.9
20260506040038 46 259 8.7 17.4 0.00 0.00 0.00 94 1016.8
20260506034534 46 267 7.8 15.6 0.00 0.00 0.00 93 1016.9
20260506033033 46 229 6.1 15.6 0.00 0.00 0.00 93 1016.8
20260506031530 46 243 7.0 14.8 0.00 0.00 0.00 94 1016.6
20260506030031 46 266 7.0 13.9 0.00 0.00 0.00 94 1016.5
20260506024526 45 278 7.0 13.9 0.00 0.00 0.00 94 1016.4
20260506023025 45 259 6.1 13.9 0.00 0.00 0.00 94 1016.3
20260506021525 45 257 7.0 13.9 0.00 0.00 0.00 94 1016.4
20260506020025 45 247 6.1 13.0 0.00 0.00 0.00 94 1016.4
20260506014533 45 238 8.7 15.6 0.00 0.00 0.00 94 1016.5
20260506013028 45 245 8.7 16.5 0.00 0.00 0.00 94 1016.5
20260506011522 45 262 8.7 18.2 0.00 0.00 0.00 93 1016.4
20260506010025 45 268 7.8 18.2 0.00 0.00 0.00 93 1016.1
20260506004528 45 259 7.8 15.6 0.00 0.00 0.00 94 1015.8
20260506003015 46 260 9.6 17.4 0.00 0.00 0.00 94 1015.4
20260506001515 45 243 9.6 15.6 0.00 0.00 0.00 94 1015.3
20260506000018 45 239 8.7 14.8 0.00 0.00 0.00 94 1015.1
20260505234516 46 245 8.7 15.6 0.00 0.00 0.00 93 1015.0
20260505233009 46 284 9.6 17.4 0.00 0.00 0.00 93 1014.7
20260505231509 47 247 10.4 17.4 0.00 0.00 0.00 93 1014.7
20260505230014 47 255 9.6 14.8 0.00 0.00 0.00 93 1014.4
20260505224508 47 249 10.4 19.1 0.00 0.00 0.00 93 1014.3
20260505223009 47 259 11.3 19.1 0.00 0.00 0.00 93 1014.4
20260505221507 48 281 8.7 17.4 0.00 0.00 0.00 93 1014.1
20260505220017 47 243 10.4 17.4 0.00 0.00 0.00 93 1013.9
20260505214512 48 249 10.4 20.9 0.00 0.00 0.00 92 1013.7
20260505213004 48 245 8.7 19.1 0.00 0.00 0.00 92 1013.7
20260505211504 48 221 8.7 16.5 0.00 0.00 0.00 91 1013.6
20260505210006 48 233 12.2 18.2 0.00 0.00 0.00 90 1013.5
20260505204507 48 241 12.2 21.7 0.00 0.00 0.00 90 1013.6
20260505203002 49 248 12.2 21.7 0.00 0.00 0.00 90 1013.9
20260505201501 49 262 13.9 22.6 0.00 0.00 0.00 89 1014.0
20260505200100 49 226 13.0 22.6 0.00 0.00 0.00 89 1014.1
20260505194604 49 245 11.3 20.0 0.00 0.00 0.00 87 1014.0
20260505193100 50 274 11.3 20.0 0.00 0.00 0.00 87 1014.1
20260505191605 49 242 12.2 19.1 0.00 0.00 0.00 87 1014.3
20260505190116 49 193 13.0 21.7 0.00 0.00 0.00 88 1014.3
20260505184609 50 200 13.9 21.7 0.00 0.00 0.00 85 1014.3
20260505183058 51 215 11.3 20.9 0.00 0.00 0.00 85 1014.3
20260505181600 50 243 10.4 20.0 0.00 0.00 0.00 86 1014.4
20260505180056 51 248 12.2 17.4 0.00 0.00 0.00 84 1014.4
20260505174658 51 280 11.3 20.9 0.00 0.00 0.00 85 1014.4
20260505173055 51 233 12.2 20.0 0.00 0.00 0.00 85 1014.4
20260505171555 49 211 9.6 16.5 0.00 0.00 0.00 86 1014.5
20260505170105 50 253 11.3 19.1 0.00 0.00 0.00 85 1014.5
20260505164554 50 269 13.0 20.9 0.00 0.00 0.00 83 1014.5
20260505163059 51 252 9.6 15.6 0.00 0.00 0.00 82 1014.5
20260505161551 51 267 7.0 14.8 0.00 0.00 0.00 83 1014.6
20260505153102 50 245 10.4 19.1 0.00 0.00 0.00 82 1014.5
20260505151548 50 238 11.3 16.5 0.00 0.00 0.00 83 1014.4
20260505124524 48 231 9.6 21.7 0.00 0.00 0.00 84 1013.6
20260505123034 47 262 11.3 21.7 0.00 0.00 0.00 85 1013.6
20260505121523 47 226 10.4 20.9 0.00 0.00 0.00 84 1013.5
20260505120023 47 227 7.8 16.5 0.00 0.00 0.00 84 1013.3
20260505114514 47 231 8.7 20.0 0.00 0.00 0.00 84 1013.2
20260505113012 47 255 8.7 15.6 0.00 0.00 0.00 85 1012.9
20260505111516 46 289 7.8 14.8 0.00 0.00 0.00 84 1013.0
20260505101503 43 278 6.1 13.9 0.00 0.00 0.00 89 1012.6
20260505100110 42 264 7.0 12.2 0.00 0.00 0.00 90 1012.6
20260505094608 42 249 6.1 13.9 0.00 0.00 0.00 91 1012.3
20260505093059 42 244 6.1 12.2 0.00 0.00 0.00 90 1012.4
20260505091556 42 333 6.1 11.3 0.00 0.00 0.00 90 1012.2
20260505090108 42 262 7.0 13.9 0.00 0.00 0.00 90 1012.2
20260505084553 42 274 7.0 13.0 0.00 0.00 0.00 90 1012.0
20260505083106 42 246 7.0 13.0 0.00 0.00 0.00 90 1011.9
20260505081551 42 250 7.0 11.3 0.00 0.00 0.00 89 1011.8